Weather History for Blair, NE

Change the Weather History Date:

Sunday, January 5, 2014

  Actual Average (KOMA) Record (KOMA)
Temperature  
Mean Temperature 2 °F 23 °F  
Max Temperature 9 °F 33 °F 66 °F (2012)
Min Temperature -4 °F 14 °F -32 °F (1884)
Degree Days  
Heating Degree Days 62 42  
Month to date heating degree days 210  
Since 1 July heating degree days 2689  
Cooling Degree Days 0 0  
Month to date cooling degree days 0  
Year to date cooling degree days 0  
Moisture  
Dew Point -8 °F    
Average Humidity 58    
Maximum Humidity 73    
Minimum Humidity 44    
Precipitation  
Precipitation 0.00 in 0.02 in 1.04 in (1932)
Month to date precipitation 0.11  
Year to date precipitation 0.11  
Snow  
Snow 0.00 in 0.20 in - ()
Month to date snowfall 0.9  
Since 1 July snowfall 9.9  
Snow Depth -    
Sea Level Pressure  
Sea Level Pressure 30.33 in    
Wind  
Wind Speed 20 mph (NNW)    
Max Wind Speed 26 mph    
Max Gust Speed 41 mph    
Visibility 10 miles    
Events      
T = Trace of Precipitation, MM = Missing Value Source: NWS Daily Summary

Daily Weather History Graph

Daily Weather History Graph

Search for Another Location

Airport:

Trip Planner

Search our weather history database for the weather conditions in past years. The results will help you decide how hot, cold, wet, or windy it might be!

Date:

Astronomy

Jan. 05, 2014 Rise Set
Actual Time 7:50 AM CST 5:09 PM CST
Civil Twilight 7:19 AM CST 5:40 PM CST
Nautical Twilight 6:45 AM CST 6:14 PM CST
Astronomical Twilight 6:11 AM CST 6:48 PM CST
Moon 10:29 AM CST (1/5) 10:42 PM CST (1/5)
Length of Visible Light 10h 20m
Length of Day
9h 18m
Waxing Crescent, 25% of the Moon is Illuminated
Jan 5
Waxing Crescent
Jan 7
First Quarter
Jan 15
Full
Jan 23
Last Quarter
Jan 30
New

Hourly Weather History & Observations

Time (CST) Temp. Windchill Dew Point Humidity Pressure Visibility Wind Dir Wind Speed Gust Speed Precip Events Conditions
12:15 AM 7.3 °F -11.1 °F 0.3 °F 73% 30.21 in 10.0 mi North 17.3 mph 25.3 mph N/A   Mostly Cloudy
12:35 AM 6.8 °F -10.7 °F -0.4 °F 72% 30.22 in 10.0 mi NNW 15.0 mph 23.0 mph N/A   Overcast
12:55 AM 6.6 °F -10.2 °F -1.7 °F 69% 30.22 in 10.0 mi North 13.8 mph 24.2 mph N/A   Mostly Cloudy
1:15 AM 6.3 °F -13.1 °F -2.2 °F 68% 30.21 in 10.0 mi North 18.4 mph 24.2 mph N/A   Scattered Clouds
1:35 AM 5.9 °F -14.1 °F -2.6 °F 68% 30.22 in 10.0 mi North 19.6 mph 23.0 mph N/A   Scattered Clouds
1:55 AM 5.7 °F -13.8 °F -2.7 °F 68% 30.23 in 10.0 mi North 18.4 mph 25.3 mph N/A   Mostly Cloudy
2:15 AM 5.5 °F -15.0 °F -3.1 °F 68% 30.22 in 10.0 mi NNW 20.7 mph 24.2 mph N/A   Scattered Clouds
2:35 AM 5.0 °F -15.2 °F -4.0 °F 66% 30.23 in 10.0 mi North 19.6 mph 25.3 mph N/A   Scattered Clouds
2:55 AM 5.0 °F -16.2 °F -4.0 °F 66% 30.24 in 10.0 mi North 21.9 mph 27.6 mph N/A   Clear
3:15 AM 5.0 °F -14.7 °F -4.0 °F 66% 30.24 in 10.0 mi North 18.4 mph 27.6 mph N/A   Clear
3:35 AM 4.6 °F -17.1 °F -4.2 °F 67% 30.22 in 10.0 mi North 23.0 mph 28.8 mph N/A   Mostly Cloudy
3:55 AM 4.5 °F -15.9 °F -4.7 °F 66% 30.24 in 10.0 mi NNW 19.6 mph 27.6 mph N/A   Overcast
4:15 AM 4.1 °F -16.9 °F -5.4 °F 65% 30.23 in 10.0 mi NNW 20.7 mph 28.8 mph N/A   Overcast
4:35 AM 3.9 °F -17.1 °F -5.3 °F 66% 30.25 in 10.0 mi NNW 20.7 mph 28.8 mph N/A   Overcast
4:55 AM 3.6 °F -18.6 °F -6.2 °F 64% 30.25 in 10.0 mi NNW 23.0 mph 28.8 mph N/A   Overcast
5:15 AM 3.2 °F -19.5 °F -6.9 °F 63% 30.25 in 10.0 mi NNW 24.2 mph 29.9 mph N/A   Overcast
5:35 AM 3.2 °F -18.1 °F -7.6 °F 61% 30.26 in 10.0 mi North 20.7 mph 27.6 mph N/A   Overcast
5:55 AM 3.0 °F -19.3 °F -8.3 °F 59% 30.26 in 10.0 mi North 23.0 mph 28.8 mph N/A   Overcast
6:15 AM 3.2 °F -19.9 °F -8.1 °F 59% 30.27 in 10.0 mi North 25.3 mph 32.2 mph N/A   Overcast
6:35 AM 3.2 °F -19.5 °F -7.4 °F 61% 30.28 in 10.0 mi NNW 24.2 mph 32.2 mph N/A   Overcast
6:55 AM 3.0 °F -17.3 °F -7.1 °F 63% 30.30 in 10.0 mi NNW 18.4 mph 29.9 mph N/A   Overcast
7:15 AM 2.3 °F -19.3 °F -8.5 °F 61% 30.30 in 10.0 mi NNW 20.7 mph 32.2 mph N/A   Overcast
7:35 AM 2.3 °F -18.8 °F -7.4 °F 64% 30.30 in 10.0 mi North 19.6 mph 25.3 mph N/A   Overcast
7:55 AM 1.4 °F -21.4 °F -8.5 °F 63% 30.31 in 10.0 mi North 23.0 mph 27.6 mph N/A   Overcast
8:15 AM 0.5 °F -20.0 °F -9.6 °F 63% 30.32 in 10.0 mi North 17.3 mph 29.9 mph N/A   Scattered Clouds
8:35 AM -0.4 °F -21.2 °F -11.2 °F 60% 30.33 in 10.0 mi North 17.3 mph 29.9 mph N/A   Clear
8:55 AM -0.4 °F -23.3 °F -11.7 °F 59% 30.33 in 10.0 mi NNW 21.9 mph 28.8 mph N/A   Mostly Cloudy
9:15 AM -0.4 °F -24.7 °F -12.8 °F 56% 30.33 in 10.0 mi North 25.3 mph 32.2 mph N/A   Mostly Cloudy
9:35 AM 0.9 °F -22.6 °F -12.6 °F 53% 30.33 in 10.0 mi NNW 24.2 mph 29.9 mph N/A   Scattered Clouds
9:55 AM 1.0 °F -22.4 °F -12.3 °F 54% 30.34 in 10.0 mi NNW 24.2 mph 28.8 mph N/A   Mostly Cloudy
10:15 AM 1.0 °F -21.4 °F -11.4 °F 56% 30.35 in 10.0 mi North 21.9 mph 29.9 mph N/A   Scattered Clouds
10:35 AM 1.2 °F -23.0 °F -11.2 °F 56% 30.36 in 10.0 mi North 26.5 mph 33.4 mph N/A   Clear
10:55 AM 2.3 °F -20.7 °F -10.1 °F 56% 30.37 in 10.0 mi North 24.2 mph 33.4 mph N/A   Clear
11:15 AM 3.9 °F -17.6 °F -8.7 °F 56% 30.37 in 10.0 mi NNW 21.9 mph 27.6 mph N/A   Clear
11:35 AM 4.5 °F -16.4 °F -7.8 °F 57% 30.37 in 10.0 mi NNW 20.7 mph 27.6 mph N/A   Clear
11:55 AM 5.4 °F -15.3 °F -7.6 °F 55% 30.36 in 10.0 mi North 20.7 mph 31.1 mph N/A   Clear
12:15 PM 6.3 °F -14.1 °F -6.7 °F 55% 30.37 in 10.0 mi NNW 20.7 mph 26.5 mph N/A   Clear
12:35 PM 6.6 °F -14.9 °F -6.9 °F 54% 30.36 in 10.0 mi NW 24.2 mph 31.1 mph N/A   Clear
12:55 PM 7.7 °F -13.5 °F -6.3 °F 53% 30.35 in 10.0 mi NNW 24.2 mph 32.2 mph N/A   Clear
1:15 PM 8.4 °F -12.1 °F -7.1 °F 49% 30.35 in 10.0 mi NW 23.0 mph 29.9 mph N/A   Clear
1:35 PM 8.6 °F -11.0 °F -6.0 °F 52% 30.35 in 10.0 mi NNW 20.7 mph 28.8 mph N/A   Clear
1:55 PM 9.1 °F -12.3 °F -6.9 °F 48% 30.35 in 10.0 mi NNW 26.5 mph 34.5 mph N/A   Clear
2:15 PM 7.7 °F -14.3 °F -7.2 °F 51% 30.36 in 10.0 mi NW 26.5 mph 38.0 mph N/A   Clear
2:35 PM 7.9 °F -13.3 °F -7.6 °F 49% 30.36 in 10.0 mi NNW 24.2 mph 34.5 mph N/A   Scattered Clouds
2:55 PM 6.8 °F -13.8 °F -9.2 °F 48% 30.38 in 10.0 mi NW 21.9 mph 41.4 mph N/A   Scattered Clouds
3:15 PM 6.8 °F -14.7 °F -9.4 °F 48% 30.39 in 10.0 mi NW 24.2 mph 35.7 mph N/A   Scattered Clouds
3:35 PM 6.8 °F -13.4 °F -8.0 °F 51% 30.40 in 10.0 mi NNW 20.7 mph 36.8 mph N/A   Mostly Cloudy
3:55 PM 5.5 °F -15.0 °F -10.3 °F 48% 30.40 in 10.0 mi NNW 20.7 mph 29.9 mph N/A   Scattered Clouds
4:15 PM 5.7 °F -13.8 °F -10.3 °F 48% 30.40 in 10.0 mi NW 18.4 mph 29.9 mph N/A   Clear
4:35 PM 5.9 °F -12.4 °F -9.0 °F 50% 30.41 in 10.0 mi NW 16.1 mph 21.9 mph N/A   Mostly Cloudy
4:55 PM 4.6 °F -15.7 °F -11.9 °F 46% 30.41 in 10.0 mi NW 19.6 mph 25.3 mph N/A   Scattered Clouds
5:15 PM 4.1 °F -14.1 °F -13.5 °F 44% 30.41 in 10.0 mi NW 15.0 mph 21.9 mph N/A   Scattered Clouds
5:35 PM 4.1 °F -14.1 °F -12.8 °F 46% 30.43 in 10.0 mi NW 15.0 mph 21.9 mph N/A   Scattered Clouds
5:55 PM 3.4 °F -19.3 °F -10.8 °F 52% 30.43 in 10.0 mi NW 24.2 mph 34.5 mph N/A   Mostly Cloudy
6:15 PM 1.8 °F -22.3 °F -7.8 °F 64% 30.44 in 7.0 mi NW 26.5 mph 32.2 mph N/A   Mostly Cloudy
6:35 PM -0.9 °F -25.5 °F -10.5 °F 64% 30.46 in 7.0 mi NNW 25.3 mph 39.1 mph N/A   Mostly Cloudy
6:55 PM -2.7 °F -27.9 °F -15.0 °F 56% 30.48 in 10.0 mi NW 25.3 mph 32.2 mph N/A   Scattered Clouds
7:15 PM -3.5 °F -27.9 °F -15.0 °F 58% 30.48 in 10.0 mi NNW 23.0 mph 32.2 mph N/A   Clear
7:35 PM -4.4 °F -25.6 °F -14.6 °F 61% 30.48 in 10.0 mi NW 16.1 mph 23.0 mph N/A   Clear
7:55 PM -4.4 °F -28.0 °F -13.2 °F 66% 30.48 in 10.0 mi NW 20.7 mph 26.5 mph N/A   Mostly Cloudy
8:15 PM -4.9 °F -27.6 °F -17.9 °F 54% 30.49 in 10.0 mi NW 18.4 mph 26.5 mph N/A   Scattered Clouds